sat.trackr.live / text

‹ back to catalog

STARLINK-3704

NORAD 51959 · 2022-025D

PAYLOAD ACTIVE UNKNOWN

§ Identity

Operator
Country
US
Launch date
2022-03-09
Launch site
AFETR
Launch vehicle
Mass (kg)
RCS (m²)

Purposes: comms

External: N2YO · Heavens-Above · Gunter

§ Orbital elements

Epoch: 2026-09-19T14:09:34.031808Z

Period
94.01 min
Inclination
53.1606°
Eccentricity
0.0001230
Mean motion
15.31699809 rev/d
Perigee alt
469.9 km
Apogee alt
471.6 km
Semi-major
6,848.9 km
B*
-2.6029e-5
RAAN
215.0647°
Arg perigee
84.7374°
Mean anomaly
275.3768°
Rev number
25,053

§ Raw data

STARLINK-37041 51959U 22025D   26262.58997722 -.00001173  00000+0 -26029-4 0  99932 51959  53.1606 215.0647 0001230  84.7374 275.3768 15.31699809250530

JSON: /api/v1/satellites/51959 · /tle

For live sub-satellite position, see the globe view (requires WebGL).

§ Visibility from observer

Set your observer location to see the next 7 days of passes ≥ 10°. The values pass through the URL so the page stays shareable.

No JS? Fill the form by hand. The geolocation button needs JavaScript.